User: anonymous   Login
Location: Payette
(44.0782°N, 116.9338°W)
Time: 00:28:58
(UTC-06:00)
Language:

N. Korean satellite - Orbit

View from above orbital plane
View from above orbital plane
View from above satellite
View from above satellite

Ground track
Ground track

The orbit data is extracted from the following two-line orbital elements,

1 39026U 12072A   19293.57143769 +.00001487 +00000-0 +55838-4 0  9991
2 39026 097.2155 292.7509 0038544 023.4445 336.8542 15.28080365380450
Epoch (UTC): 20 October 2019 13:42:52
Eccentricity: 0.0038544
inclination: 97.2155°
perigee height: 455 km
apogee height: 508 km
right ascension of ascending node: 292.7509°
argument of perigee: 23.4445°
revolutions per day: 15.28080365
mean anomaly at epoch: 336.8542°
orbit number at epoch: 38045

The dashed part of the orbit path shows where the satellite is in the earth's shadow,  

DLR